Simultaneous Nadir Overpasses (SNOs) Predictions

Prediction of SNOs between GOES-16 and NOAA-19 Satellite Orbit:

Table of predicted SNOs for the next 14.0 days since TLE Epoch: 12/1/2024
Index Date Time (GOES-16) GOES-16 Lat,Lon NOAA-19 Lat,Lon Distance(km) Time Diff (sec)
1 12/02/2024 02:38:03 0.04, -75.19 -0.17, -76.07 101.35 80
2 12/03/2024 02:22:55 0.03, -75.19 0.52, -73.04 244.79 80
3 12/05/2024 14:44:29 -0.02, -75.22 0.53, -77.54 265.55 80
4 12/06/2024 14:29:20 -0.02, -75.23 -0.21, -74.52 81.30 80
5 12/07/2024 14:16:51 -0.02, -75.23 -0.88, -71.48 428.24 80
6 12/09/2024 02:51:04 0.02, -75.22 -0.86, -79.06 437.92 80
7 12/10/2024 02:38:35 0.01, -75.23 -0.19, -76.02 90.70 80
8 12/11/2024 02:23:26 0.01, -75.24 0.54, -72.99 256.77 80
9 12/13/2024 14:44:57 -0.00, -75.30 0.50, -77.49 249.63 80
10 12/14/2024 14:29:48 -0.00, -75.31 -0.21, -74.45 98.27 80
